Flag Weather past 2 weeks in Bruck an der Leitha, Lower Austria, Austria

Now
35 °F

Overcast.


Feels Like: 30 °F
Forecast: 32 / 37 °F
Wind: 7 mph from Southeast

Location: Wien / Schwechat-Flughafen

Current Time: Nov 27, 2014 at 10:00:00 PM

Latest Report: Nov 27, 2014 at 9:00 PM


Visibility: 5 mi

Pressure: 30.05 "Hg

Humidity: 84%

Dew point: 31 °F

Location of Bruck an der LeithaLocation

Historic Weather in Bruck an der Leitha — Graph

°F

Bruck an der Leitha temperature yesterday

Maximum temperature yesterday: 40 °F (at 1:00 PM)
Minimum temperature yesterday: 34 °F (at 8:00 AM)
Average temperature yesterday: 38 °F

Past Weeks' High & Low Weather Summary

 TemperatureHumidityPressure
High57 °F (Nov 14, 2:00 PM)100% (Nov 17, 5:00 AM)30.42 "Hg (Nov 17, 5:00 AM)
Low34 °F (Nov 26, 8:00 AM)66% (Nov 19, 11:00 AM)29.69 "Hg (Nov 16, 6:00 AM)
Average44 °F88%30.09 "Hg
* Reported Nov 12 8:00 PM — Nov 27 8:00 PM, Bruck an der Leitha, Weather by CustomWeather, © 2014

Note: Actual official high and low records may vary slightly from our data, if they occured in-between our weather recording intervals... More about our weather records

Advertising

Bruck an der Leitha weather history for previous 24 hours

 ConditionsComfort  
Time TempWeatherWind HumidityBarometerVisibility
8:00 PM
Nov 27
36 °FOvercast.9 mph79%30.05 "Hg6 mi
7:00 PM36 °FOvercast.9 mph78%30.05 "Hg6 mi
6:00 PM36 °FOvercast.8 mph79%30.05 "Hg6 mi
5:00 PM36 °FOvercast.10 mph75%30.05 "Hg7 mi
4:00 PM36 °FOvercast.10 mph74%30.04 "Hg7 mi
3:00 PM37 °FOvercast.9 mph73%30.03 "Hg8 mi
2:00 PM38 °FOvercast.13 mph71%30.05 "Hg9 mi
1:00 PM37 °FOvercast.10 mph72%30.07 "Hg9 mi
12:00 PM37 °FOvercast.10 mph76%30.08 "Hg7 mi
11:00 AM36 °FOvercast.12 mph76%30.10 "Hg7 mi
10:00 AM35 °FOvercast.9 mph78%30.11 "Hg6 mi
9:00 AM35 °FOvercast.10 mph81%30.11 "Hg5 mi
8:00 AM35 °FOvercast.9 mph81%30.11 "Hg6 mi
7:00 AM35 °FOvercast.9 mph80%30.10 "Hg6 mi
6:00 AM35 °FOvercast.9 mph81%30.10 "Hg6 mi
5:00 AM36 °FOvercast.8 mph85%30.10 "Hg6 mi
3:00 AM37 °FOvercast.8 mph89%30.12 "Hg4 mi
2:00 AM36 °FOvercast.8 mph90%30.13 "Hg5 mi
1:00 AM36 °FOvercast.7 mph85%30.15 "Hg5 mi
12:00 AM36 °FOvercast.7 mph90%30.16 "Hg4 mi
11:00 PM
Nov 26
37 °FOvercast.8 mph87%30.17 "Hg5 mi
10:00 PM38 °FOvercast.8 mph86%30.18 "Hg5 mi
Weather by CustomWeather, © 2014

See weather overviewHow to use our weather pages